[[{"header":{"parameterUnit":"m.s-1","parameterCategory":2,"la1":30.2991,"la2":30.254,"lo1":-89.0895,"lo2":-89.0444,"dy":0.0017,"dx":0.0017,"nx":28,"ny":28,"refTime":"2025-07-12T09:00:00:Z","depth":"0","parameterNumber":2,"parameterNumberName":"U-component_of_CURRENTS"},"data":[0,0,0,0,0,0,0,0,0,0,0,0,0,0,0,0,0,0,0,0,0,0,0,0,0,0,0,0,0,0,0,0,0,0,0,0,0,0,0,0,0,0,0,0,0,0,0,0,0,0,0,0,0,0,0,0,0,0,-0.2087,-0.2088,0,-0.2156,-0.2157,-0.2158,-0.2186,-0.2186,-0.2186,-0.2186,-0.2196,-0.2196,-0.2197,0,0,0,0,0,0,0,0,0,0,0,0,0,-0.2004,-0.2005,-0.2087,-0.2088,-0.2089,-0.2156,-0.2157,-0.2158,-0.2186,-0.2186,-0.2186,-0.2186,-0.2196,-0.2196,-0.2197,0,0,0,0,0,0,0,0,0,0,0,0,0,-0.2051,-0.2005,-0.2086,-0.2112,-0.2115,-0.2156,-0.2157,-0.2158,-0.2186,-0.2186,-0.2186,-0.2186,-0.2196,-0.2196,-0.2197,-0.2199,0,0,-0.2198,-0.2198,0,0,0,0,0,0,0,0,-0.2049,-0.2054,-0.2107,-0.211,-0.2114,-0.2164,-0.2132,-0.2169,-0.2186,-0.2157,-0.2186,-0.2186,-0.2181,-0.2183,-0.2194,-0.2199,-0.22,-0.2198,-0.2198,-0.2198,-0.2198,0,0,0,0,0,0,0,-0.2045,-0.2051,-0.2112,-0.2108,-0.2113,-0.213,-0.2136,-0.2139,-0.2165,-0.2159,-0.2162,-0.2173,-0.2182,-0.2193,-0.2194,-0.22,-0.2198,-0.2198,-0.2198,-0.2199,-0.2257,-0.2259,0,0,0,0,0,0,-0.2039,-0.2048,-0.211,-0.2115,-0.2083,-0.2131,-0.2138,-0.2146,-0.2167,-0.2171,-0.2173,-0.2174,-0.2193,-0.2194,-0.2195,-0.2213,-0.2198,-0.2199,-0.2199,-0.2256,-0.2258,-0.2259,0,0,0,0,0,0,-0.2037,-0.2044,-0.2107,-0.2085,-0.2094,-0.2132,-0.2142,-0.2148,-0.216,-0.2178,-0.2181,-0.2179,-0.2193,-0.2194,-0.2217,-0.2212,-0.2199,-0.2199,-0.2255,-0.2257,-0.2259,-0.2239,0,0,0,0,0,0,-0.2035,-0.2043,-0.204,-0.2084,-0.2095,-0.213,-0.2142,-0.2149,-0.2168,-0.217,-0.2184,-0.2185,-0.2193,-0.2217,-0.2217,-0.2213,-0.22,-0.2253,-0.2256,-0.2258,-0.2238,-0.224,-0.2242,0,0,0,0,0,-0.2031,-0.2024,-0.2039,-0.2047,-0.2092,-0.213,-0.2137,-0.2163,-0.2168,-0.2174,-0.2197,-0.2185,-0.2233,-0.2218,-0.2219,-0.2214,-0.2252,-0.2255,-0.2258,-0.2237,-0.2239,-0.2242,0,0,0,0,0,0,-0.1984,-0.2028,-0.2045,-0.2052,-0.209,-0.2136,-0.2136,-0.2162,-0.2185,-0.2183,-0.22,-0.2203,-0.2222,-0.223,-0.2213,-0.2244,-0.2241,-0.2244,-0.2225,-0.2227,-0.2229,-0.2212,-0.22,0,0,0,0,0,-0.1974,-0.1979,-0.2033,-0.2036,-0.2051,-0.2095,-0.211,-0.2135,-0.2166,-0.2176,-0.2193,-0.2214,-0.2236,-0.224,-0.2259,-0.227,-0.2262,-0.2271,-0.2273,-0.2275,-0.2265,-0.2268,-0.2268,-0.2269,-0.2269,-0.2269,0,0,-0.1954,-0.198,-0.1982,-0.2026,-0.2051,-0.2076,-0.2103,-0.2127,-0.2147,-0.2172,-0.2192,-0.2218,-0.2243,-0.2264,-0.2272,-0.2266,-0.2271,-0.2278,-0.2279,-0.2268,-0.2271,-0.227,-0.227,-0.2271,-0.2271,-0.227,0,0,-0.1921,-0.1943,-0.1939,-0.1973,-0.2018,-0.2052,-0.206,-0.2111,-0.213,-0.2163,-0.219,-0.222,-0.2245,-0.227,-0.2283,-0.2308,-0.2284,-0.2312,-0.2298,-0.2301,-0.23,-0.2299,-0.2281,-0.2279,-0.2309,-0.2309,-0.2309,0,-0.1897,-0.1905,-0.1944,-0.1959,-0.198,-0.204,-0.2051,-0.2085,-0.214,-0.2153,-0.2164,-0.2225,-0.2247,-0.2276,-0.2293,-0.2307,-0.2297,-0.2281,-0.23,-0.2299,-0.2298,-0.228,-0.2277,-0.2308,-0.2308,-0.2308,-0.2308,0,-0.1869,-0.1882,-0.1882,-0.1922,-0.1952,-0.197,-0.2031,-0.2059,-0.209,-0.2126,-0.2163,-0.2208,-0.224,-0.226,-0.2282,-0.2296,-0.2286,-0.2301,-0.2283,-0.2296,-0.2277,-0.2275,-0.2307,-0.2307,-0.2308,-0.2308,0,0,-0.1802,-0.1851,-0.1852,-0.1864,-0.1934,-0.1954,-0.1991,-0.2039,-0.2053,-0.2109,-0.2121,-0.2185,-0.2209,-0.2228,-0.2263,-0.2275,-0.2268,-0.2281,-0.2282,-0.2244,-0.2252,-0.2211,-0.2204,-0.2279,-0.2279,-0.2279,-0.2236,0,-0.1769,-0.1776,-0.1817,-0.1832,-0.1844,-0.1913,-0.1942,-0.1995,-0.2039,-0.2068,-0.2123,-0.2148,-0.2197,-0.2207,-0.2231,-0.2261,-0.2262,-0.2276,-0.2262,-0.2261,-0.2208,-0.2201,-0.2165,-0.2122,-0.2234,-0.2234,-0.2233,0,-0.1731,-0.1742,-0.1743,-0.1788,-0.1797,-0.1817,-0.1867,-0.1903,-0.1969,-0.2001,-0.2046,-0.2088,-0.2129,-0.2161,-0.2203,-0.2206,-0.2223,-0.2244,-0.2243,-0.2207,-0.2216,-0.2132,-0.2113,-0.2007,-0.223,-0.223,-0.223,0,-0.1658,-0.1693,-0.1685,-0.1703,-0.1763,-0.177,-0.1802,-0.1871,-0.1896,-0.1949,-0.1963,-0.2025,-0.2043,-0.2085,-0.214,-0.2164,-0.2165,-0.2204,-0.2181,-0.2178,-0.2145,-0.2139,-0.2004,-0.2216,-0.2216,-0.2216,-0.2216,0,-0.1609,-0.1606,-0.1645,-0.1641,-0.1636,-0.17,-0.1706,-0.1754,-0.181,-0.1833,-0.1912,-0.1932,-0.2024,-0.2048,-0.2102,-0.212,-0.2132,-0.2164,-0.2163,-0.2138,-0.2132,-0.2038,-0.2007,-0.2215,-0.2215,-0.2215,-0.2216,0,-0.1535,-0.1563,-0.1557,-0.1593,-0.1601,-0.1594,-0.1643,-0.1654,-0.1715,-0.1743,-0.1753,-0.1844,-0.1872,-0.1942,-0.1998,-0.2054,-0.2034,-0.2084,-0.2037,-0.2031,-0.1924,-0.1895,-0.1855,-0.1797,-0.2055,-0.2054,-0.2053,0,-0.1494,-0.1481,-0.1502,-0.1493,-0.1503,-0.151,-0.1521,-0.1593,-0.1615,-0.1694,-0.1698,-0.1733,-0.1764,-0.1817,-0.1912,-0.1964,-0.1938,-0.1956,-0.2009,-0.1889,-0.1856,-0.1906,-0.1864,-0.1958,-0.1956,-0.1954,-0.1953,0,-0.1411,-0.1421,-0.1415,-0.1397,-0.1393,-0.1404,-0.1425,-0.1435,-0.1525,-0.1553,-0.1594,-0.1615,-0.1692,-0.1756,-0.1821,-0.185,-0.1874,-0.1927,-0.1821,-0.1772,-0.18,-0.1752,-0.1999,-0.194,-0.1942,-0.1942,-0.1943,-0.1944,-0.1339,-0.1317,-0.1306,-0.1284,-0.1291,-0.1292,-0.1268,-0.1315,-0.1336,-0.1362,-0.1467,-0.1492,-0.164,-0.1739,-0.1723,-0.1703,-0.1776,-0.1702,-0.1677,-0.1739,-0.1676,-0.1875,-0.1807,-0.1808,-0.1808,-0.1809,-0.1809,0,-0.1242,-0.1222,-0.1193,-0.1172,-0.1156,-0.1189,-0.1196,-0.1161,-0.1155,-0.122,-0.1254,-0.1444,-0.1481,-0.155,-0.1624,-0.1515,-0.1519,-0.1413,-0.1455,-0.1424,-0.1601,-0.1584,-0.144,-0.144,-0.144,-0.1441,-0.1441,-0.1441,-0.1182,-0.1123,-0.1109,-0.1039,-0.1034,-0.0982,-0.0967,-0.0926,-0.0941,-0.0972,-0.1087,-0.1203,-0.1345,-0.1467,-0.134,-0.1273,-0.118,-0.1181,-0.1131,-0.1213,-0.1239,-0.1262,-0.1236,-0.1022,-0.1021,-0.0977,-0.0976,-0.0975]},{"header":{"parameterUnit":"m.s-1","parameterCategory":2,"la1":30.2991,"la2":30.254,"lo1":-89.0895,"lo2":-89.0444,"dy":0.0017,"dx":0.0017,"nx":28,"ny":28,"refTime":"2025-07-12T09:00:00:Z","depth":"0","parameterNumber":3,"parameterNumberName":"V-component_of_CURRENTS"},"data":[0,0,0,0,0,0,0,0,0,0,0,0,0,0,0,0,0,0,0,0,0,0,0,0,0,0,0,0,0,0,0,0,0,0,0,0,0,0,0,0,0,0,0,0,0,0,0,0,0,0,0,0,0,0,0,0,0,0,-0.1216,-0.1216,0,-0.1223,-0.1223,-0.1223,-0.1239,-0.124,-0.124,-0.124,-0.116,-0.1157,-0.1155,0,0,0,0,0,0,0,0,0,0,0,0,0,-0.1192,-0.1192,-0.1216,-0.1216,-0.1217,-0.1223,-0.1223,-0.1223,-0.1239,-0.124,-0.124,-0.1241,-0.1161,-0.1158,-0.1155,0,0,0,0,0,0,0,0,0,0,0,0,0,-0.12,-0.1192,-0.1216,-0.1226,-0.1227,-0.1223,-0.1223,-0.1223,-0.1239,-0.124,-0.124,-0.1241,-0.1162,-0.1158,-0.1154,-0.1118,0,0,-0.1143,-0.1141,0,0,0,0,0,0,0,0,-0.12,-0.1201,-0.1224,-0.1225,-0.1227,-0.1232,-0.1185,-0.1184,-0.1239,-0.1233,-0.124,-0.1241,-0.1176,-0.1171,-0.1171,-0.1115,-0.1111,-0.1142,-0.114,-0.1138,-0.1137,0,0,0,0,0,0,0,-0.1199,-0.12,-0.1218,-0.1225,-0.1226,-0.1222,-0.1224,-0.1185,-0.1199,-0.1234,-0.1235,-0.1237,-0.1176,-0.1175,-0.1169,-0.111,-0.1143,-0.1139,-0.1137,-0.1135,-0.1016,-0.1015,0,0,0,0,0,0,-0.1201,-0.12,-0.1218,-0.1218,-0.1215,-0.1222,-0.1224,-0.1229,-0.1201,-0.1198,-0.1237,-0.1238,-0.1181,-0.1173,-0.1166,-0.1116,-0.1139,-0.1135,-0.1133,-0.1017,-0.1016,-0.1015,0,0,0,0,0,0,-0.12,-0.1202,-0.1218,-0.121,-0.1212,-0.1222,-0.1227,-0.1228,-0.1227,-0.1205,-0.12,-0.1234,-0.1181,-0.1171,-0.1134,-0.1113,-0.1133,-0.113,-0.1018,-0.1017,-0.1016,-0.1019,0,0,0,0,0,0,-0.12,-0.1202,-0.1199,-0.121,-0.1212,-0.121,-0.1226,-0.1228,-0.1228,-0.1229,-0.12,-0.1194,-0.1181,-0.114,-0.1131,-0.1108,-0.1127,-0.1019,-0.1018,-0.1016,-0.102,-0.1018,-0.1016,0,0,0,0,0,-0.1199,-0.1189,-0.1199,-0.1201,-0.121,-0.1209,-0.1209,-0.1218,-0.1227,-0.122,-0.1206,-0.1195,-0.1123,-0.1136,-0.1125,-0.1101,-0.102,-0.1018,-0.1016,-0.1021,-0.1018,-0.1016,0,0,0,0,0,0,-0.1166,-0.119,-0.1201,-0.1197,-0.1203,-0.1212,-0.1203,-0.1214,-0.1199,-0.1198,-0.1182,-0.1174,-0.1131,-0.1115,-0.1131,-0.1062,-0.1069,-0.1064,-0.1076,-0.1073,-0.1071,-0.1077,-0.1124,0,0,0,0,0,-0.1161,-0.1167,-0.1183,-0.1179,-0.1179,-0.1191,-0.119,-0.12,-0.1194,-0.1189,-0.1171,-0.1145,-0.1113,-0.1095,-0.1063,-0.1024,-0.1023,-0.1001,-0.0999,-0.0997,-0.0994,-0.0972,-0.0969,-0.1008,-0.1008,-0.1009,0,0,-0.1147,-0.1161,-0.1163,-0.1173,-0.1177,-0.1176,-0.1192,-0.1189,-0.1187,-0.1178,-0.1156,-0.1132,-0.11,-0.1062,-0.1041,-0.1047,-0.099,-0.0995,-0.0994,-0.0991,-0.097,-0.0966,-0.0963,-0.1007,-0.1007,-0.1008,0,0,-0.1126,-0.1133,-0.1135,-0.1139,-0.1149,-0.1156,-0.1156,-0.1162,-0.1161,-0.114,-0.1132,-0.11,-0.1055,-0.1032,-0.1013,-0.0977,-0.0978,-0.0966,-0.0961,-0.094,-0.0937,-0.0934,-0.0951,-0.0949,-0.0968,-0.0968,-0.0968,0,-0.1108,-0.1119,-0.113,-0.1131,-0.1135,-0.1148,-0.1147,-0.1142,-0.1137,-0.113,-0.113,-0.1067,-0.1038,-0.0995,-0.0987,-0.0971,-0.0978,-0.0975,-0.0939,-0.0936,-0.0933,-0.0951,-0.0949,-0.0968,-0.0968,-0.0968,-0.0968,0,-0.1099,-0.1102,-0.1097,-0.1112,-0.111,-0.1109,-0.1113,-0.1107,-0.1107,-0.1105,-0.1063,-0.103,-0.0997,-0.0979,-0.0971,-0.0932,-0.0951,-0.0939,-0.095,-0.0929,-0.0949,-0.0948,-0.0968,-0.0968,-0.0968,-0.0968,0,0,-0.1082,-0.1093,-0.1093,-0.1101,-0.1105,-0.1107,-0.1093,-0.109,-0.1088,-0.1061,-0.1048,-0.0988,-0.0978,-0.0957,-0.0939,-0.0919,-0.0909,-0.0925,-0.0924,-0.0951,-0.0896,-0.0992,-0.0999,-0.0895,-0.0894,-0.0894,-0.0928,0,-0.1077,-0.1085,-0.1089,-0.1088,-0.1092,-0.1094,-0.1085,-0.1079,-0.1069,-0.1055,-0.1015,-0.0988,-0.0968,-0.0956,-0.0929,-0.0909,-0.0901,-0.0903,-0.0903,-0.0904,-0.0998,-0.0998,-0.0956,-0.0989,-0.0926,-0.0926,-0.0925,0,-0.1073,-0.1084,-0.1088,-0.1094,-0.1095,-0.1094,-0.1094,-0.1087,-0.1063,-0.1053,-0.1018,-0.0995,-0.0953,-0.0943,-0.09,-0.0907,-0.0902,-0.0891,-0.0892,-0.0976,-0.0995,-0.0992,-0.0988,-0.068,-0.0923,-0.0923,-0.0923,0,-0.1075,-0.1082,-0.1092,-0.1094,-0.1099,-0.1098,-0.1101,-0.1086,-0.1087,-0.1055,-0.1053,-0.0996,-0.098,-0.0943,-0.0926,-0.0912,-0.0901,-0.0876,-0.096,-0.0968,-0.0929,-0.0936,-0.0632,-0.0851,-0.0851,-0.0851,-0.0851,0,-0.1073,-0.1075,-0.1097,-0.1102,-0.1114,-0.111,-0.1117,-0.1107,-0.1099,-0.1105,-0.1056,-0.1058,-0.0979,-0.0967,-0.0938,-0.0964,-0.0911,-0.0968,-0.0979,-0.0934,-0.094,-0.0671,-0.0457,-0.0853,-0.0852,-0.0852,-0.0852,0,-0.1055,-0.1074,-0.1084,-0.1104,-0.1114,-0.1119,-0.1139,-0.1146,-0.1136,-0.1143,-0.1136,-0.1103,-0.11,-0.1053,-0.1011,-0.1005,-0.0858,-0.1023,-0.1003,-0.1013,-0.0825,-0.0616,-0.0453,-0.034,-0.1119,-0.1121,-0.1123,0,-0.1038,-0.1048,-0.1088,-0.1105,-0.1112,-0.1132,-0.1152,-0.116,-0.1177,-0.1186,-0.1197,-0.1194,-0.1222,-0.1216,-0.1186,-0.1179,-0.092,-0.1133,-0.1094,-0.0811,-0.0584,-0.0516,-0.0425,-0.1041,-0.1042,-0.1043,-0.1044,0,-0.1003,-0.1026,-0.1038,-0.1088,-0.1119,-0.1154,-0.1187,-0.1216,-0.1236,-0.1266,-0.1317,-0.1344,-0.1357,-0.1362,-0.1354,-0.1297,-0.0882,-0.1161,-0.0828,-0.047,-0.0407,-0.0307,-0.1039,-0.1053,-0.1052,-0.1051,-0.1051,-0.1051,-0.0969,-0.0976,-0.1015,-0.1058,-0.1101,-0.1165,-0.1197,-0.1265,-0.1324,-0.1408,-0.1435,-0.1557,-0.147,-0.1476,-0.1358,-0.1004,-0.0983,-0.0843,-0.0612,-0.0576,-0.0444,-0.1244,-0.1302,-0.1303,-0.1303,-0.1303,-0.1304,0,-0.0935,-0.0956,-0.0987,-0.1045,-0.1093,-0.1128,-0.1209,-0.1261,-0.1359,-0.1535,-0.163,-0.1707,-0.1519,-0.1299,-0.0853,-0.0488,-0.038,-0.0209,0.0024,0.0089,-0.0572,-0.0542,-0.0484,-0.0485,-0.0485,-0.0485,-0.0485,-0.0486,-0.092,-0.0942,-0.0968,-0.103,-0.1069,-0.114,-0.1189,-0.1286,-0.1431,-0.1651,-0.1823,-0.1949,-0.1346,-0.042,0.026,0.0351,0.0727,0.0702,0.088,0.061,0.0572,0.0536,0.0616,0.0915,0.0917,0.1443,0.145,0.1455]}],[{"header":{"parameterUnit":"m.s-1","parameterCategory":2,"la1":30.2991,"la2":30.254,"lo1":-89.0895,"lo2":-89.0444,"dy":0.0017,"dx":0.0017,"nx":28,"ny":28,"refTime":"2025-07-12T09:00:00:Z","depth":"2","parameterNumber":2,"parameterNumberName":"U-component_of_CURRENTS"},"data":[0,0,0,0,0,0,0,0,0,0,0,0,0,0,0,0,0,0,0,0,0,0,0,0,0,0,0,0,0,0,0,0,0,0,0,0,0,0,0,0,0,0,0,0,0,0,0,0,0,0,0,0,0,0,0,0,0,0,-0.2837,-0.2837,0,-0.2838,-0.2838,-0.2837,-0.281,-0.281,-0.2809,-0.2809,-0.2674,-0.267,-0.2667,0,0,0,0,0,0,0,0,0,0,0,0,0,-0.2793,-0.2794,-0.2837,-0.2837,-0.2837,-0.2838,-0.2838,-0.2837,-0.281,-0.281,-0.2809,-0.2809,-0.2675,-0.2671,-0.2667,0,0,0,0,0,0,0,0,0,0,0,0,0,-0.2802,-0.2794,-0.2837,-0.2826,-0.2826,-0.2838,-0.2838,-0.2837,-0.2811,-0.281,-0.2809,-0.2809,-0.2676,-0.2671,-0.2667,-0.265,0,0,-0.2652,-0.265,0,0,0,0,0,0,0,0,-0.2802,-0.2803,-0.2827,-0.2827,-0.2826,-0.2826,-0.2773,-0.2769,-0.2811,-0.2813,-0.2809,-0.2808,-0.2714,-0.2706,-0.2706,-0.2644,-0.2638,-0.2651,-0.2649,-0.2646,-0.2645,0,0,0,0,0,0,0,-0.2801,-0.2803,-0.2834,-0.2828,-0.2827,-0.2816,-0.2816,-0.2772,-0.2762,-0.2813,-0.2811,-0.2817,-0.2713,-0.271,-0.2702,-0.2636,-0.2652,-0.2647,-0.2644,-0.2642,-0.2522,-0.2522,0,0,0,0,0,0,-0.2809,-0.2803,-0.2834,-0.2834,-0.2816,-0.2817,-0.2817,-0.2824,-0.2766,-0.2758,-0.2817,-0.2816,-0.2719,-0.2708,-0.2697,-0.2658,-0.2646,-0.2642,-0.2639,-0.2522,-0.2522,-0.2522,0,0,0,0,0,0,-0.2808,-0.2812,-0.2834,-0.2821,-0.2823,-0.2819,-0.2827,-0.2825,-0.2825,-0.2772,-0.276,-0.2821,-0.2718,-0.2704,-0.2659,-0.2653,-0.264,-0.2635,-0.2523,-0.2522,-0.2522,-0.259,0,0,0,0,0,0,-0.2807,-0.2812,-0.2821,-0.2822,-0.2824,-0.2845,-0.2828,-0.2825,-0.2831,-0.2828,-0.277,-0.2757,-0.2716,-0.2666,-0.2654,-0.2646,-0.2632,-0.2523,-0.2523,-0.2522,-0.2588,-0.2592,-0.2595,0,0,0,0,0,-0.2805,-0.2822,-0.2821,-0.2825,-0.2837,-0.2845,-0.2846,-0.2838,-0.2832,-0.2835,-0.2794,-0.2759,-0.2653,-0.2663,-0.2648,-0.2639,-0.2524,-0.2523,-0.2522,-0.2586,-0.2591,-0.2595,0,0,0,0,0,0,-0.2811,-0.2822,-0.282,-0.284,-0.2844,-0.2842,-0.2846,-0.2845,-0.2819,-0.2811,-0.2758,-0.2742,-0.2702,-0.266,-0.2672,-0.2601,-0.2581,-0.2578,-0.2635,-0.2639,-0.2642,-0.2647,-0.2628,0,0,0,0,0,-0.2818,-0.2827,-0.2837,-0.2849,-0.2854,-0.2851,-0.2855,-0.2853,-0.2833,-0.2823,-0.2786,-0.2735,-0.2688,-0.2657,-0.2614,-0.2575,-0.2525,-0.2557,-0.2561,-0.2564,-0.2557,-0.2466,-0.2461,-0.2519,-0.2519,-0.2519,0,0,-0.2821,-0.283,-0.2834,-0.285,-0.285,-0.2858,-0.2851,-0.286,-0.2858,-0.2809,-0.2788,-0.275,-0.2683,-0.2643,-0.262,-0.2606,-0.2528,-0.2563,-0.2567,-0.2558,-0.2465,-0.2459,-0.2454,-0.2519,-0.2519,-0.2519,0,0,-0.2829,-0.2841,-0.2849,-0.2857,-0.2867,-0.2868,-0.2874,-0.2877,-0.2867,-0.285,-0.281,-0.2766,-0.2707,-0.2654,-0.2618,-0.261,-0.2555,-0.2603,-0.2616,-0.2528,-0.2523,-0.2517,-0.248,-0.247,-0.2598,-0.2598,-0.2598,0,-0.2835,-0.2844,-0.2852,-0.2864,-0.2869,-0.2874,-0.2881,-0.2878,-0.2865,-0.2841,-0.2846,-0.2746,-0.2704,-0.2629,-0.2641,-0.2616,-0.2578,-0.261,-0.2533,-0.2526,-0.2519,-0.2482,-0.247,-0.2601,-0.2601,-0.26,-0.26,0,-0.2845,-0.2855,-0.2861,-0.2873,-0.2881,-0.289,-0.2892,-0.2891,-0.2884,-0.2864,-0.2806,-0.2757,-0.2692,-0.2679,-0.2664,-0.2594,-0.259,-0.2556,-0.2526,-0.2517,-0.2479,-0.2466,-0.2605,-0.2604,-0.2603,-0.2603,0,0,-0.2834,-0.2864,-0.2861,-0.286,-0.2885,-0.2885,-0.289,-0.2873,-0.2846,-0.2834,-0.2779,-0.2733,-0.2711,-0.2671,-0.2639,-0.2577,-0.2524,-0.2563,-0.2556,-0.2534,-0.2368,-0.2352,-0.2336,-0.2478,-0.2475,-0.2473,-0.2374,0,-0.2831,-0.285,-0.2867,-0.2869,-0.2872,-0.2883,-0.2878,-0.2862,-0.2841,-0.2793,-0.2736,-0.2682,-0.2705,-0.2677,-0.2623,-0.2535,-0.2487,-0.2556,-0.2372,-0.2367,-0.2359,-0.2318,-0.2072,-0.1961,-0.2361,-0.2359,-0.2357,0,-0.2812,-0.2832,-0.284,-0.2847,-0.2847,-0.2852,-0.2825,-0.2827,-0.2772,-0.2752,-0.2703,-0.2663,-0.2593,-0.2604,-0.2468,-0.2515,-0.246,-0.2398,-0.2391,-0.2337,-0.2324,-0.2025,-0.1921,-0.2334,-0.2336,-0.2337,-0.2339,0,-0.2762,-0.2793,-0.2795,-0.2803,-0.2825,-0.2818,-0.2828,-0.2799,-0.2768,-0.2725,-0.2673,-0.2609,-0.2541,-0.2469,-0.2391,-0.2423,-0.2222,-0.2234,-0.2169,-0.2169,-0.19,-0.1881,-0.2124,-0.2124,-0.2125,-0.2125,-0.2125,0,-0.2732,-0.272,-0.2771,-0.2769,-0.2747,-0.2788,-0.2748,-0.2749,-0.2715,-0.264,-0.2649,-0.255,-0.2499,-0.239,-0.2351,-0.2217,-0.2188,-0.2159,-0.2124,-0.1924,-0.1909,-0.2179,-0.2187,-0.2121,-0.2122,-0.2123,-0.2123,0,-0.2643,-0.2689,-0.2676,-0.2712,-0.2716,-0.2697,-0.2699,-0.2669,-0.2663,-0.2564,-0.2547,-0.247,-0.2352,-0.2298,-0.2153,-0.2135,-0.2027,-0.1988,-0.1797,-0.1743,-0.2058,-0.207,-0.1915,-0.1913,-0.1912,-0.191,-0.1909,0,-0.2594,-0.2583,-0.2607,-0.2602,-0.2611,-0.2607,-0.2597,-0.2626,-0.2585,-0.2485,-0.2408,-0.23,-0.2184,-0.2008,-0.1943,-0.1867,-0.1933,-0.1615,-0.1635,-0.2045,-0.2027,-0.2042,-0.2056,-0.1311,-0.1305,-0.1301,-0.1297,0,-0.2478,-0.2483,-0.2481,-0.2481,-0.2477,-0.2472,-0.2461,-0.2421,-0.2423,-0.2335,-0.2186,-0.2095,-0.194,-0.1734,-0.1675,-0.159,-0.1624,-0.1522,-0.1895,-0.1441,-0.1477,-0.1461,-0.1492,-0.1254,-0.1258,-0.1261,-0.1264,-0.1265,-0.2357,-0.2329,-0.2336,-0.2319,-0.2333,-0.232,-0.227,-0.2266,-0.2183,-0.2079,-0.2041,-0.1862,-0.1718,-0.1546,-0.1397,-0.1269,-0.1416,-0.1298,-0.131,-0.1328,-0.1314,-0.1349,-0.1101,-0.1104,-0.1107,-0.111,-0.1112,0,-0.2188,-0.2185,-0.2176,-0.2157,-0.2138,-0.2192,-0.2151,-0.2075,-0.1952,-0.1988,-0.1905,-0.1538,-0.1364,-0.122,-0.0965,-0.0918,-0.0885,-0.0833,-0.0762,-0.0801,-0.0837,-0.0798,-0.0448,-0.0447,-0.0447,-0.0446,0,0,-0.2093,-0.2034,-0.2043,-0.1966,-0.1963,-0.1893,-0.1854,-0.1749,-0.1743,-0.1624,-0.154,-0.1681,-0.1394,-0.1097,-0.0893,-0.0666,-0.0793,-0.0613,-0.1129,-0.1104,-0.1143,-0.1052,-0.103,0,0,0,0,0]},{"header":{"parameterUnit":"m.s-1","parameterCategory":2,"la1":30.2991,"la2":30.254,"lo1":-89.0895,"lo2":-89.0444,"dy":0.0017,"dx":0.0017,"nx":28,"ny":28,"refTime":"2025-07-12T09:00:00:Z","depth":"2","parameterNumber":3,"parameterNumberName":"V-component_of_CURRENTS"},"data":[0,0,0,0,0,0,0,0,0,0,0,0,0,0,0,0,0,0,0,0,0,0,0,0,0,0,0,0,0,0,0,0,0,0,0,0,0,0,0,0,0,0,0,0,0,0,0,0,0,0,0,0,0,0,0,0,0,0,0.0536,0.0538,0,0.0731,0.0733,0.0736,0.0815,0.0814,0.0813,0.0812,0.0983,0.0988,0.0994,0,0,0,0,0,0,0,0,0,0,0,0,0,0.0354,0.0356,0.0535,0.0538,0.054,0.073,0.0733,0.0736,0.0815,0.0814,0.0813,0.0812,0.0982,0.0988,0.0994,0,0,0,0,0,0,0,0,0,0,0,0,0,0.0482,0.0357,0.0535,0.06,0.0607,0.073,0.0734,0.0737,0.0815,0.0814,0.0813,0.0812,0.098,0.0987,0.0995,0.1066,0,0,0.1019,0.1022,0,0,0,0,0,0,0,0,0.0474,0.0488,0.0588,0.0595,0.0604,0.0745,0.0732,0.0845,0.0815,0.0739,0.0812,0.0811,0.09,0.0914,0.0958,0.1074,0.1081,0.102,0.1024,0.1028,0.103,0,0,0,0,0,0,0,0.0465,0.0481,0.0616,0.059,0.06,0.0661,0.0677,0.0755,0.0825,0.0746,0.0751,0.0768,0.0905,0.0951,0.0963,0.1084,0.1019,0.1026,0.1031,0.1034,0.1206,0.1206,0,0,0,0,0,0,0.043,0.0472,0.061,0.0621,0.0532,0.0664,0.0683,0.0703,0.0825,0.0842,0.0769,0.0771,0.0938,0.0953,0.0969,0.0973,0.1028,0.1035,0.104,0.1206,0.1206,0.1206,0,0,0,0,0,0,0.0425,0.0441,0.0602,0.0549,0.0573,0.0667,0.0691,0.0707,0.073,0.0843,0.086,0.077,0.0937,0.0958,0.1016,0.0983,0.1039,0.1046,0.1206,0.1206,0.1206,0.1036,0,0,0,0,0,0,0.042,0.0438,0.0438,0.0546,0.0574,0.0643,0.0692,0.0712,0.0742,0.0746,0.085,0.0867,0.0938,0.1004,0.1024,0.0995,0.1052,0.1207,0.1206,0.1206,0.1041,0.103,0.102,0,0,0,0,0,0.0412,0.041,0.0437,0.0453,0.0572,0.0642,0.0661,0.0728,0.0742,0.0745,0.0817,0.0862,0.1016,0.101,0.1034,0.1006,0.1207,0.1206,0.1206,0.1046,0.1032,0.102,0,0,0,0,0,0,0.0337,0.0421,0.0452,0.0477,0.0539,0.0653,0.066,0.0709,0.0773,0.0765,0.087,0.0892,0.093,0.1,0.0991,0.1058,0.1116,0.112,0.0986,0.0974,0.0963,0.0937,0.1059,0,0,0,0,0,0.0319,0.0331,0.0426,0.0441,0.0462,0.0556,0.059,0.0633,0.0706,0.0732,0.0804,0.0882,0.0956,0.0985,0.1062,0.1101,0.115,0.1099,0.1088,0.1078,0.1075,0.1127,0.1119,0.1205,0.1205,0.1205,0,0,0.0294,0.034,0.0348,0.0424,0.0474,0.0502,0.0573,0.0602,0.0623,0.0741,0.0772,0.0847,0.096,0.1001,0.1023,0.1047,0.1073,0.1077,0.1067,0.1071,0.1126,0.1117,0.1109,0.1204,0.1204,0.1204,0,0,0.0244,0.0284,0.0276,0.0318,0.0378,0.0439,0.0435,0.0524,0.0554,0.0603,0.069,0.0745,0.0851,0.0925,0.0979,0.0959,0.1017,0.0972,0.089,0.0938,0.093,0.0925,0.0937,0.0934,0.096,0.096,0.096,0,0.0209,0.0223,0.0284,0.029,0.0315,0.0398,0.0399,0.045,0.0544,0.0566,0.0581,0.0738,0.0819,0.0892,0.0878,0.093,0.0954,0.0921,0.0919,0.0915,0.0912,0.0927,0.0926,0.0952,0.0953,0.0954,0.0954,0,0.0165,0.0172,0.0164,0.02,0.0234,0.0241,0.0317,0.0338,0.0376,0.0437,0.0494,0.0607,0.0698,0.0725,0.0795,0.0818,0.0837,0.0897,0.0939,0.0892,0.0912,0.0913,0.094,0.0943,0.0945,0.0947,0,0,0.0103,0.0128,0.0125,0.0126,0.0183,0.0209,0.0222,0.0276,0.0288,0.0351,0.0376,0.0487,0.0534,0.06,0.0687,0.0726,0.071,0.078,0.0786,0.0767,0.0777,0.0775,0.0777,0.0756,0.0756,0.0756,0.0784,0,0.0052,0.003,0.0066,0.0051,0.0049,0.0114,0.013,0.0182,0.0232,0.0271,0.0365,0.0426,0.0491,0.0524,0.0566,0.0698,0.0713,0.0695,0.085,0.0854,0.0838,0.078,0.0852,0.0882,0.0786,0.0786,0.0787,0,0.0003,-0.0003,-0.0038,-0.0019,-0.0015,-0.0017,0.0021,0.0049,0.0122,0.0158,0.0214,0.0301,0.0376,0.0435,0.0576,0.0555,0.0636,0.0723,0.0728,0.0792,0.0856,0.0927,0.089,0.0791,0.079,0.079,0.079,0,-0.0066,-0.007,-0.0106,-0.01,-0.0069,-0.0084,-0.0066,-0.0003,0.0027,0.0081,0.0105,0.0204,0.026,0.0373,0.052,0.0549,0.0661,0.0739,0.0807,0.0807,0.0936,0.0947,0.0814,0.0814,0.0814,0.0814,0.0814,0,-0.0123,-0.0149,-0.0153,-0.0171,-0.0204,-0.0163,-0.0177,-0.0142,-0.0088,-0.0059,0.0031,0.0075,0.0246,0.0337,0.0471,0.0616,0.0616,0.0775,0.0814,0.0875,0.088,0.0875,0.0881,0.0815,0.0815,0.0815,0.0814,0,-0.0189,-0.0192,-0.023,-0.0236,-0.0243,-0.027,-0.0248,-0.024,-0.0194,-0.0157,-0.0145,-0.0024,0.0076,0.0226,0.0414,0.0555,0.0702,0.0747,0.0777,0.082,0.0829,0.0827,0.0851,0.0851,0.0851,0.0852,0.0852,0,-0.0221,-0.0255,-0.0289,-0.0316,-0.0331,-0.0356,-0.036,-0.0309,-0.0285,-0.0208,-0.0189,-0.0106,-0.0026,0.0208,0.0482,0.0688,0.0643,0.084,0.0929,0.0797,0.0833,0.0831,0.0829,0.1025,0.1026,0.1027,0.1028,0,-0.0275,-0.03,-0.0328,-0.0391,-0.0424,-0.0432,-0.0438,-0.0429,-0.036,-0.0331,-0.0281,-0.0223,0.0036,0.0321,0.0577,0.071,0.0818,0.0871,0.0744,0.099,0.096,0.0995,0.0988,0.1039,0.1038,0.1037,0.1037,0.1036,-0.031,-0.0349,-0.0396,-0.0453,-0.0489,-0.051,-0.0523,-0.0507,-0.0486,-0.04,-0.0326,-0.0117,0.0175,0.0651,0.0728,0.0863,0.0934,0.1012,0.1009,0.1005,0.1007,0.0977,0.1058,0.1057,0.1056,0.1055,0.1055,0,-0.0321,-0.0377,-0.0444,-0.0502,-0.0549,-0.056,-0.0563,-0.0553,-0.0552,-0.0368,-0.0287,0.0127,0.0457,0.0668,0.098,0.1107,0.1097,0.1012,0.1031,0.1027,0.1021,0.1021,0.1077,0.1075,0.1073,0.1072,0,0,-0.0326,-0.0389,-0.0432,-0.053,-0.0587,-0.063,-0.0642,-0.0629,-0.0491,-0.0339,-0.0058,0.0314,0.0662,0.0857,0.0959,0.1019,0.0943,0.0973,0.0983,0.0992,0.098,0.1091,0.1095,0,0,0,0,0]}],[{"header":{"parameterUnit":"m.s-1","parameterCategory":2,"la1":30.2991,"la2":30.254,"lo1":-89.0895,"lo2":-89.0444,"dy":0.0017,"dx":0.0017,"nx":28,"ny":28,"refTime":"2025-07-12T09:00:00:Z","depth":"4","parameterNumber":2,"parameterNumberName":"U-component_of_CURRENTS"},"data":[0,0,0,0,0,0,0,0,0,0,0,0,0,0,0,0,0,0,0,0,0,0,0,0,0,0,0,0,0,0,0,0,0,0,0,0,0,0,0,0,0,0,0,0,0,0,0,0,0,0,0,0,0,0,0,0,0,0,-0.1074,-0.1075,0,-0.1142,-0.1142,-0.1143,-0.118,-0.118,-0.1181,-0.1181,-0.1275,-0.1277,-0.1279,0,0,0,0,0,0,0,0,0,0,0,0,0,-0.1012,-0.1012,-0.1074,-0.1075,-0.1075,-0.1141,-0.1142,-0.1143,-0.118,-0.118,-0.1181,-0.1181,-0.1274,-0.1277,-0.128,0,0,0,0,0,0,0,0,0,0,0,0,0,-0.1054,-0.1012,-0.1073,-0.1103,-0.1106,-0.1141,-0.1142,-0.1143,-0.118,-0.118,-0.1181,-0.1181,-0.1273,-0.1276,-0.128,-0.1296,0,0,-0.1291,-0.1292,0,0,0,0,0,0,0,0,-0.1051,-0.1056,-0.1097,-0.1101,-0.1104,-0.1153,-0.1155,-0.1196,-0.118,-0.1151,-0.1181,-0.1181,-0.1237,-0.1243,-0.1254,-0.1301,-0.1305,-0.1291,-0.1293,-0.1295,-0.1296,0,0,0,0,0,0,0,-0.1048,-0.1054,-0.11,-0.1098,-0.1103,-0.1124,-0.113,-0.1163,-0.1192,-0.1154,-0.1157,-0.1166,-0.1239,-0.1251,-0.1257,-0.1306,-0.1291,-0.1294,-0.1296,-0.1297,-0.1407,-0.1408,0,0,0,0,0,0,-0.104,-0.1051,-0.1098,-0.1102,-0.1079,-0.1125,-0.1132,-0.1137,-0.1191,-0.1199,-0.1165,-0.1167,-0.1244,-0.1252,-0.126,-0.1338,-0.1295,-0.1298,-0.13,-0.1406,-0.1407,-0.1408,0,0,0,0,0,0,-0.1038,-0.1043,-0.1095,-0.1079,-0.1087,-0.1126,-0.1131,-0.1138,-0.1168,-0.1199,-0.1208,-0.119,-0.1245,-0.1255,-0.1307,-0.134,-0.1299,-0.1303,-0.1405,-0.1406,-0.1407,-0.1459,0,0,0,0,0,0,-0.1036,-0.1042,-0.1053,-0.1078,-0.1088,-0.1125,-0.1131,-0.1139,-0.1172,-0.1175,-0.1223,-0.1231,-0.1246,-0.1301,-0.131,-0.1344,-0.1305,-0.1404,-0.1406,-0.1407,-0.1456,-0.1461,-0.1466,0,0,0,0,0,-0.1033,-0.1044,-0.1053,-0.1059,-0.1097,-0.1126,-0.1133,-0.1161,-0.1173,-0.1188,-0.1224,-0.1231,-0.1316,-0.1305,-0.1315,-0.1351,-0.1403,-0.1405,-0.1407,-0.1454,-0.146,-0.1466,0,0,0,0,0,0,-0.1025,-0.105,-0.106,-0.1078,-0.1104,-0.1133,-0.1153,-0.1171,-0.1211,-0.122,-0.1248,-0.1259,-0.1314,-0.1321,-0.1308,-0.1383,-0.1359,-0.1362,-0.1391,-0.1397,-0.1402,-0.1386,-0.1308,0,0,0,0,0,-0.1027,-0.1042,-0.1067,-0.1085,-0.1098,-0.1129,-0.1148,-0.1166,-0.1199,-0.1218,-0.1255,-0.129,-0.1326,-0.1353,-0.1381,-0.1429,-0.1414,-0.1454,-0.1459,-0.1463,-0.1455,-0.1468,-0.1474,-0.1414,-0.1414,-0.1414,0,0,-0.1032,-0.1046,-0.1058,-0.1085,-0.1108,-0.113,-0.1141,-0.1173,-0.1201,-0.1222,-0.1281,-0.1313,-0.1341,-0.1394,-0.1419,-0.1408,-0.1472,-0.1466,-0.147,-0.1458,-0.1471,-0.1476,-0.1481,-0.1415,-0.1415,-0.1415,0,0,-0.104,-0.1059,-0.1072,-0.1092,-0.1125,-0.1144,-0.1156,-0.1197,-0.1225,-0.1278,-0.1302,-0.1352,-0.1409,-0.1439,-0.1459,-0.1508,-0.1497,-0.152,-0.1541,-0.1555,-0.156,-0.1564,-0.1549,-0.1551,-0.1525,-0.1526,-0.1526,0,-0.105,-0.1059,-0.1083,-0.1097,-0.1116,-0.1151,-0.117,-0.1204,-0.126,-0.1289,-0.13,-0.1396,-0.1428,-0.1488,-0.1508,-0.1521,-0.1513,-0.1521,-0.1562,-0.1566,-0.1569,-0.1552,-0.1554,-0.1528,-0.1528,-0.1528,-0.1527,0,-0.1055,-0.1073,-0.1083,-0.1111,-0.1139,-0.1159,-0.1203,-0.1243,-0.1284,-0.1319,-0.1394,-0.1441,-0.1493,-0.152,-0.1534,-0.1583,-0.1564,-0.1566,-0.1547,-0.1579,-0.1558,-0.1559,-0.1532,-0.1531,-0.153,-0.153,0,0,-0.1047,-0.1081,-0.1086,-0.1097,-0.1144,-0.1164,-0.1219,-0.1271,-0.1306,-0.1375,-0.1421,-0.1504,-0.1532,-0.1554,-0.1587,-0.1609,-0.1636,-0.1602,-0.1602,-0.1586,-0.1645,-0.148,-0.1465,-0.165,-0.165,-0.1651,-0.1619,0,-0.1043,-0.1061,-0.109,-0.112,-0.1128,-0.1181,-0.1224,-0.1282,-0.1337,-0.1392,-0.1457,-0.1512,-0.1544,-0.1575,-0.1608,-0.1632,-0.1641,-0.1642,-0.1616,-0.1614,-0.1464,-0.1462,-0.1653,-0.162,-0.162,-0.162,-0.162,0,-0.1032,-0.104,-0.1065,-0.1108,-0.1121,-0.1149,-0.1219,-0.1269,-0.1352,-0.1396,-0.1468,-0.1512,-0.158,-0.1586,-0.1641,-0.1641,-0.1641,-0.165,-0.1649,-0.1474,-0.145,-0.1582,-0.1622,-0.1622,-0.1621,-0.1621,-0.1621,0,-0.0991,-0.1026,-0.1044,-0.1057,-0.1113,-0.1141,-0.1183,-0.1266,-0.1313,-0.1399,-0.1427,-0.1515,-0.1546,-0.1586,-0.1611,-0.1633,-0.1632,-0.1663,-0.1509,-0.1497,-0.1636,-0.1632,-0.1672,-0.1672,-0.1672,-0.1672,-0.1672,0,-0.0961,-0.0977,-0.102,-0.1026,-0.105,-0.1107,-0.1161,-0.1214,-0.1291,-0.1332,-0.1423,-0.1442,-0.1546,-0.1563,-0.1595,-0.1533,-0.1618,-0.1493,-0.1474,-0.1657,-0.1656,-0.1636,-0.1632,-0.1671,-0.1671,-0.1672,-0.1672,0,-0.0915,-0.095,-0.0967,-0.1014,-0.1031,-0.1051,-0.1135,-0.1166,-0.1244,-0.1293,-0.1317,-0.139,-0.1386,-0.1446,-0.1484,-0.1473,-0.1459,-0.141,-0.1569,-0.1563,-0.1324,-0.1324,-0.1248,-0.1241,-0.1236,-0.1232,-0.1228,0,-0.089,-0.0889,-0.0944,-0.0949,-0.097,-0.1013,-0.104,-0.1134,-0.1166,-0.1243,-0.1242,-0.1255,-0.1289,-0.1204,-0.1279,-0.1281,-0.1275,-0.1275,-0.133,-0.1288,-0.1279,-0.1287,-0.1293,-0.122,-0.1218,-0.1217,-0.1216,0,-0.0827,-0.086,-0.0878,-0.0883,-0.0905,-0.0935,-0.0976,-0.0993,-0.1092,-0.1163,-0.1131,-0.1122,-0.1081,-0.1096,-0.1071,-0.1094,-0.1294,-0.1221,-0.1234,-0.1285,-0.1254,-0.1251,-0.1264,-0.1197,-0.12,-0.1202,-0.1203,0,-0.0787,-0.0779,-0.0804,-0.0804,-0.0827,-0.0827,-0.0878,-0.0889,-0.0933,-0.1023,-0.0998,-0.1007,-0.1051,-0.0992,-0.099,-0.0965,-0.0976,-0.1004,-0.1028,-0.1049,-0.0998,-0.093,-0.0738,0,0,0,0,0,-0.0733,-0.0716,-0.0711,-0.0708,-0.0725,-0.0734,-0.0812,-0.087,-0.0965,-0.0905,-0.0953,-0.0908,-0.0865,-0.0874,-0.0807,-0.0903,-0.0986,-0.0826,-0.1034,-0.1097,-0.1118,-0.1076,0,0,0,0,0,0,-0.0696,-0.0698,-0.0686,-0.0621,-0.0591,-0.0603,-0.065,-0.0721,-0.0707,-0.0798,-0.0768,-0.0833,-0.0793,-0.0851,-0.0768,-0.0774,-0.0889,-0.084,-0.0838,-0.1085,-0.1104,-0.1121,-0.1085,0,0,0,0,0]},{"header":{"parameterUnit":"m.s-1","parameterCategory":2,"la1":30.2991,"la2":30.254,"lo1":-89.0895,"lo2":-89.0444,"dy":0.0017,"dx":0.0017,"nx":28,"ny":28,"refTime":"2025-07-12T09:00:00:Z","depth":"4","parameterNumber":3,"parameterNumberName":"V-component_of_CURRENTS"},"data":[0,0,0,0,0,0,0,0,0,0,0,0,0,0,0,0,0,0,0,0,0,0,0,0,0,0,0,0,0,0,0,0,0,0,0,0,0,0,0,0,0,0,0,0,0,0,0,0,0,0,0,0,0,0,0,0,0,0,-0.0231,-0.0231,0,-0.021,-0.0209,-0.0209,-0.0166,-0.0165,-0.0164,-0.0163,-0.0078,-0.0077,-0.0075,0,0,0,0,0,0,0,0,0,0,0,0,0,-0.023,-0.023,-0.0231,-0.0231,-0.023,-0.021,-0.0209,-0.0209,-0.0166,-0.0165,-0.0164,-0.0163,-0.0079,-0.0077,-0.0075,0,0,0,0,0,0,0,0,0,0,0,0,0,-0.0221,-0.023,-0.0231,-0.0207,-0.0204,-0.021,-0.0209,-0.0209,-0.0166,-0.0165,-0.0163,-0.0162,-0.0079,-0.0077,-0.0075,-0.0085,0,0,-0.0068,-0.0067,0,0,0,0,0,0,0,0,-0.0222,-0.0221,-0.021,-0.0208,-0.0206,-0.0189,-0.0178,-0.0165,-0.0166,-0.018,-0.0163,-0.0162,-0.0111,-0.0106,-0.0105,-0.0081,-0.0078,-0.0068,-0.0066,-0.0065,-0.0065,0,0,0,0,0,0,0,-0.0222,-0.0222,-0.0222,-0.021,-0.0208,-0.0196,-0.0193,-0.0175,-0.0151,-0.0179,-0.0176,-0.0175,-0.0109,-0.0107,-0.0102,-0.0076,-0.0068,-0.0066,-0.0064,-0.0063,-0.0042,-0.0043,0,0,0,0,0,0,-0.0228,-0.0222,-0.0222,-0.0221,-0.0212,-0.0197,-0.0194,-0.0195,-0.0152,-0.0145,-0.0176,-0.0173,-0.0111,-0.0105,-0.0099,-0.0092,-0.0065,-0.0063,-0.0062,-0.0042,-0.0042,-0.0043,0,0,0,0,0,0,-0.0228,-0.0228,-0.0223,-0.0221,-0.022,-0.0198,-0.02,-0.0196,-0.0191,-0.0151,-0.0142,-0.0176,-0.011,-0.0102,-0.0086,-0.0089,-0.0062,-0.006,-0.0041,-0.0042,-0.0043,-0.009,0,0,0,0,0,0,-0.0228,-0.0228,-0.0237,-0.0222,-0.022,-0.0228,-0.0201,-0.0196,-0.0193,-0.0189,-0.0148,-0.0139,-0.0109,-0.009,-0.0084,-0.0086,-0.0058,-0.004,-0.0041,-0.0043,-0.0087,-0.0092,-0.0097,0,0,0,0,0,-0.0228,-0.0243,-0.0238,-0.0238,-0.0232,-0.0229,-0.0227,-0.0206,-0.0194,-0.0197,-0.0171,-0.014,-0.0095,-0.0089,-0.0082,-0.0083,-0.0039,-0.0041,-0.0042,-0.0085,-0.0091,-0.0097,0,0,0,0,0,0,-0.0243,-0.024,-0.0234,-0.0246,-0.0239,-0.0222,-0.0226,-0.0214,-0.0198,-0.0194,-0.0152,-0.0142,-0.0127,-0.0106,-0.01,-0.0083,-0.0061,-0.0062,-0.0096,-0.0102,-0.0107,-0.0119,-0.0057,0,0,0,0,0,-0.0254,-0.0265,-0.0255,-0.0265,-0.0264,-0.0248,-0.0247,-0.0234,-0.0217,-0.0209,-0.0181,-0.0154,-0.0132,-0.0117,-0.0096,-0.009,-0.0045,-0.0086,-0.0091,-0.0095,-0.0102,-0.004,-0.0039,-0.0049,-0.0049,-0.0049,0,0,-0.0264,-0.0263,-0.0269,-0.027,-0.0263,-0.0275,-0.0244,-0.0246,-0.0254,-0.0203,-0.0203,-0.017,-0.0135,-0.0124,-0.0116,-0.0104,-0.0068,-0.0098,-0.0101,-0.0106,-0.0042,-0.004,-0.0039,-0.005,-0.005,-0.005,0,0,-0.0287,-0.0287,-0.0304,-0.0306,-0.0304,-0.0297,-0.0301,-0.0287,-0.0278,-0.0279,-0.024,-0.021,-0.0187,-0.0154,-0.0137,-0.0159,-0.0097,-0.0154,-0.0184,-0.0124,-0.0122,-0.012,-0.0053,-0.0044,-0.0154,-0.0154,-0.0154,0,-0.0299,-0.0319,-0.0308,-0.0325,-0.0335,-0.0311,-0.0333,-0.0327,-0.0309,-0.0303,-0.0286,-0.0238,-0.0201,-0.0178,-0.0182,-0.0167,-0.0122,-0.0162,-0.0128,-0.0125,-0.0122,-0.0054,-0.0044,-0.0157,-0.0156,-0.0156,-0.0156,0,-0.0332,-0.0353,-0.0363,-0.0381,-0.039,-0.0404,-0.0398,-0.0398,-0.0386,-0.037,-0.0347,-0.0297,-0.0264,-0.0246,-0.022,-0.0186,-0.0156,-0.014,-0.011,-0.0124,-0.0051,-0.004,-0.016,-0.0159,-0.0159,-0.0158,0,0,-0.0344,-0.0381,-0.0385,-0.0408,-0.0423,-0.0432,-0.0451,-0.0454,-0.046,-0.0431,-0.0428,-0.0377,-0.0338,-0.0316,-0.0269,-0.0217,-0.0146,-0.0175,-0.0171,-0.0103,-0.0004,0.0039,0.0057,-0.0121,-0.0119,-0.0118,0.0043,0,-0.0373,-0.0419,-0.0431,-0.0481,-0.0505,-0.0504,-0.0526,-0.0525,-0.0509,-0.0499,-0.0439,-0.0418,-0.0369,-0.0348,-0.0288,-0.0193,-0.0121,-0.0191,-0.0006,-0.0001,0.0044,0.0069,-0.0114,0.0051,0.0054,0.0056,0.0057,0,-0.04,-0.0429,-0.0483,-0.0535,-0.0545,-0.0574,-0.0598,-0.0612,-0.059,-0.0578,-0.0538,-0.0491,-0.0421,-0.0374,-0.0206,-0.0253,-0.0131,-0.0047,-0.0038,0.0024,0.0063,0.0065,0.0078,0.0077,0.0075,0.0074,0.0072,0,-0.0409,-0.0467,-0.0512,-0.053,-0.0582,-0.0607,-0.0628,-0.063,-0.0638,-0.0619,-0.0609,-0.0532,-0.0482,-0.0345,-0.0175,-0.0185,0.0023,0.0034,0.0197,0.0202,0.0135,0.0131,0.0178,0.0178,0.0178,0.0177,0.0177,0,-0.0435,-0.0475,-0.0523,-0.055,-0.0608,-0.0631,-0.0674,-0.0686,-0.0687,-0.0677,-0.0642,-0.0595,-0.0469,-0.0338,-0.0184,0.004,0.0026,0.0202,0.0248,0.0112,0.0104,0.0145,0.0139,0.0183,0.0182,0.0181,0.018,0,-0.0446,-0.0476,-0.0535,-0.0595,-0.0617,-0.0656,-0.0709,-0.0728,-0.073,-0.0712,-0.0706,-0.0632,-0.0464,-0.0314,-0.0084,0.0039,0.0237,0.0332,0.018,0.0213,0.0381,0.037,0.052,0.0523,0.0526,0.0528,0.053,0,-0.0458,-0.0487,-0.0562,-0.0598,-0.0632,-0.0686,-0.0722,-0.0748,-0.0753,-0.0702,-0.0682,-0.0553,-0.0469,-0.012,0.0022,0.0301,0.0352,0.0447,0.0409,0.0387,0.0417,0.0402,0.0389,0.0534,0.0534,0.0535,0.0536,0,-0.0479,-0.0505,-0.0552,-0.0617,-0.0668,-0.0722,-0.0759,-0.0759,-0.0754,-0.0755,-0.0608,-0.045,-0.0262,-0.0062,0.0141,0.0346,0.0363,0.0473,0.0469,0.0435,0.0405,0.0429,0.0412,0.0544,0.0543,0.0542,0.0542,0,-0.0491,-0.0525,-0.0576,-0.0631,-0.0698,-0.0733,-0.0753,-0.0721,-0.0714,-0.0638,-0.0572,-0.0389,-0.0296,-0.003,0.0168,0.0345,0.0397,0.0457,0.0455,0.0447,0.0363,0.031,0.0473,0,0,0,0,0,-0.05,-0.0528,-0.0582,-0.0646,-0.0711,-0.0742,-0.0771,-0.0775,-0.0747,-0.0625,-0.0591,-0.0396,-0.0102,0.0,0.0195,0.0189,0.0392,0.042,0.0452,0.0592,0.0582,0.0497,0,0,0,0,0,0,-0.0508,-0.0555,-0.0575,-0.064,-0.0683,-0.0746,-0.0761,-0.0742,-0.0663,-0.0605,-0.0452,-0.0347,-0.0082,-0.0212,0.0197,0.0245,0.0297,0.055,0.0555,0.0597,0.0588,0.058,0.049,0,0,0,0,0]}]]